Regional Weather Roundup
Issued by NWS Sioux Falls, SD

Home | Current Version | Previous Version | Text Only | Print | Product List | Glossary On
Versions: 1 2 3 4 5 6 7 8 9 10 11 12 13 14 15 16 17 18 19 20 21 22 23 24 25 26 27 28 29 30 31 32 33 34 35 36 37 38 39 40 41 42 43 44 45 46 47 48 49 50
000
ASUS43 KFSD 011102
RWRFSD

WEATHER ROUNDUP FOR SE SOUTH DAKOTA/SW MINNESOTA/NW IOWA
NATIONAL WEATHER SERVICE SIOUX FALLS SD
500 AM CST SUN MAR 01 2015

NOTE: "FAIR" INDICATES FEW OR NO CLOUDS BELOW 12,000 FEET WITH NO
SIGNIFICANT WEATHER AND OR OBSTRUCTIONS TO VISIBILITY.


SDZ038>040-050-052>070-011200-
SOUTHEAST SOUTH DAKOTA

CITY           SKY/WX    TMP DP  RH WIND       PRES   REMARKS
CHAMBERLAIN    NOT AVBL
HURON          PTCLDY     3  -1  83 SW3       30.29R
MADISON        FAIR       5   5 100 W5        30.24R WCI  -4
MITCHELL       CLEAR     11   6  81 SW6       30.30R WCI   1
SIOUX FALLS    MOCLDY    12   8  84 CALM      30.27R
WINNER         CLOUDY    18   4  54 W7        30.27R WCI   9
YANKTON        PTCLDY    16  10  79 NW8       30.31S WCI   5
$$

MNZ071-072-080-081-089-090-097-098-011200-
SOUTHWEST MINNESOTA

CITY           SKY/WX    TMP DP  RH WIND       PRES   REMARKS
FAIRMONT       MOCLDY    12   9  85 W10       30.24R WCI  -1
JACKSON        PTCLDY    12   9  85 W9        30.24R WCI   0
LUVERNE        PTCLDY    12   9  85 NW6       30.26S WCI   3
MARSHALL       CLEAR      9   0  66 W10       30.26R WCI  -6
MONTEVIDEO     PTCLDY     9   1  72 NW5       30.26R WCI   0
PIPESTONE      PTCLDY     5   1  85 CALM      30.22R
REDWOOD FALLS  CLEAR     11   4  73 W10       30.25R WCI  -3
TRACY          CLEAR     13   9  85 W6        30.24S WCI   4
WINDOM         PTCLDY    12   9  85 W7        30.24R WCI   2
WORTHINGTON    MOCLDY    21   7  53 W10       30.25R WCI  10
$$

IAZ001>003-012>014-020>022-031-032-NEZ013-014-SDZ071-011200-
NORTHWEST IOWA

CITY           SKY/WX    TMP DP  RH WIND       PRES   REMARKS
DENISON        MOCLDY    12  12 100 SW3       30.29R
ESTHERVILLE    PTCLDY    12  10  92 W14       30.24S WCI  -3
SIOUX CITY     PTCLDY    16  11  80 SW6       30.31R WCI   7
SPENCER        PTCLDY    13   8  81 W9        30.26R WCI   1
$$

ABBREVIATIONS USED IN REMARKS
   TC - TEMPERATURE IN CELSIUS
  WCI - WIND CHILL INDEX
   HX - HEAT INDEX
  VSB - VISIBILITY




USA.gov is the U.S. government's official web portal to all federal, state and local government web resources and services.